Simultaneous Nadir Overpasses (SNOs) Predictions

Prediction of SNOs between GOES-17 and METOP-B Satellite Orbit:

Table of predicted SNOs for the next 14.0 days since TLE Epoch: 9/9/2023
Index Date Time (GOES-17) GOES-17 Lat,Lon METOP-B Lat,Lon Distance(km) Time Diff (sec)
1 09/10/2023 04:23:35 -0.00,-104.68 0.12,-104.10 66.29 80
2 09/11/2023 16:42:25 -0.00,-104.71 0.87,-108.66 450.58 80
3 09/12/2023 16:24:25 -0.00,-104.71 -0.25,-103.67 118.97 80
4 09/14/2023 04:43:23 0.00,-104.69 -0.80,-108.26 406.83 80
5 09/15/2023 04:20:03 -0.00,-104.69 0.32,-103.26 162.62 80
6 09/16/2023 16:38:52 0.00,-104.71 0.72,-107.81 354.01 80
7 09/17/2023 16:20:52 0.00,-104.72 -0.40,-102.82 215.78 80
8 09/19/2023 04:39:50 -0.00,-104.70 -0.63,-107.41 309.79 80
9 09/20/2023 04:16:29 0.00,-104.70 0.49,-102.42 259.44 80
10 09/21/2023 16:35:20 -0.00,-104.71 0.48,-106.98 258.11 80
11 09/22/2023 16:17:18 0.00,-104.71 -0.59,-101.98 311.17 80
